Location: Cronhütte
(48.9135°N, 9.6869°E)
Time: 17:37:42
(UTC+00:00)

FORMOSAT 3E - Pass Details

Date: 05 May 2025
Orbit: 742 x 834 km, 72.0° (Epoch: 13 May)

Event Time Altitude Azimuth Distance (km) Brightness Sun altitude
Rises 22:44:18 0° 331° (NNW) 3,200 12.4 -24.1°
Reaches altitude 10° 22:46:39 10° 330° (NNW) 2,279 11.4 -24.2°
Maximum altitude 22:51:48 72° 247° (WSW) 802 7.9 -24.3°
Enters shadow 22:52:16 67° 208° (SSW) 826 7.9 -24.3°
